Weather History for Szeged, Hungary

Change the Weather History Date:

Monday, March 25, 2013

  Actual Average (LRAR) Record (LRAR)
Temperature  
Mean Temperature 30 °F -  
Max Temperature 32 °F 61 °F 73 °F (2001)
Min Temperature 27 °F 41 °F 19 °F (1998)
Degree Days  
Heating Degree Days 36    
Moisture  
Dew Point 24 °F    
Average Humidity 80    
Maximum Humidity 100    
Minimum Humidity 45    
Precipitation  
Precipitation 0.16 in 0.05 in - ()
Sea Level Pressure  
Sea Level Pressure 29.85 in    
Wind  
Wind Speed 12 mph ()    
Max Wind Speed 16 mph    
Max Gust Speed -    
Visibility 3.8 miles    
Events Snow    
Averages and records for this station are not official NWS values.
T = Trace of Precipitation, MM = Missing Value Source: Averaged Metar Reports

Daily Weather History Graph

Daily Weather History Graph

Search for Another Location

Airport:

Trip Planner

Search our weather history database for the weather conditions in past years. The results will help you decide how hot, cold, wet, or windy it might be!

Date:

Astronomy

Mar. 25, 2013 Rise Set
Actual Time 5:33 AM CET 5:58 PM CET
Civil Twilight 5:02 AM CET 6:29 PM CET
Nautical Twilight 4:27 AM CET 7:04 PM CET
Astronomical Twilight 3:50 AM CET 7:41 PM CET
Moon 4:06 PM CET (3/25) 4:12 AM CET (3/25)
Length of Visible Light 13h 26m
Length of Day
12h 25m
Waxing Gibbous, 95% of the Moon is Illuminated
Mar 25
Waxing Gibbous
Mar 27
Full
Apr 3
Last Quarter
Apr 10
New
Apr 18
First Quarter

Hourly Weather History & Observations

Time (CET) Temp. Windchill Dew Point Humidity Pressure Visibility Wind Dir Wind Speed Gust Speed Precip Events Conditions
12:45 AM 30.2 °F 18.9 °F 15.8 °F 55% 30.04 in - NNE 16.1 mph - N/A   Clear
1:00 AM 29 °F - 16 °F 45% 30.04 in 19 mi NNE 15.7 mph - -   Partly Cloudy
1:45 AM 30.2 °F 19.3 °F 15.8 °F 55% 30.01 in - NNE 15.0 mph - N/A   Clear
2:45 AM 28.4 °F 16.6 °F 15.8 °F 59% 30.01 in - NNE 16.1 mph - N/A   Clear
3:45 AM 28.4 °F 18.0 °F 15.8 °F 59% 29.98 in - NNE 12.7 mph - N/A   Clear
4:45 AM 28.4 °F 19.1 °F 14.0 °F 55% 29.98 in - NNE 10.4 mph - N/A   Clear
5:15 AM 28.4 °F 19.7 °F 15.8 °F 59% 29.98 in - NNE 9.2 mph - N/A   Clear
5:45 AM 26.6 °F 17.5 °F 15.8 °F 64% 29.98 in - NNE 9.2 mph - N/A   Clear
6:15 AM 28.4 °F 19.7 °F 15.8 °F 59% 29.98 in - NNE 9.2 mph - N/A   Clear
6:45 AM 28.4 °F 18.5 °F 15.8 °F 59% 29.95 in - NNE 11.5 mph - N/A   Clear
7:00 AM 28 °F - 16 °F 48% 29.98 in 19 mi NNE 11.2 mph - -   Partly Cloudy
7:15 AM 28.4 °F 18.0 °F 15.8 °F 59% 29.98 in - NNE 12.7 mph - N/A   Clear
7:45 AM 30.2 °F 20.2 °F 15.8 °F 55% 29.95 in - NNE 12.7 mph - N/A   Clear
8:15 AM 30.2 °F 19.8 °F 17.6 °F 60% 29.95 in - NE 13.8 mph - N/A   Clear
8:45 AM 30.2 °F 20.2 °F 17.6 °F 60% 29.95 in - NNE 12.7 mph - N/A   Clear
9:15 AM 32.0 °F 22.5 °F 19.4 °F 60% 29.95 in 6.2 mi NNE 12.7 mph - N/A Snow Light Snow
9:45 AM 32.0 °F 22.1 °F 19.4 °F 60% 29.92 in 6.2 mi NNE 13.8 mph - N/A Snow Light Snow
10:15 AM 32.0 °F 22.1 °F 19.4 °F 60% 29.89 in 6.2 mi NNE 13.8 mph - N/A Snow Light Snow
10:45 AM 32.0 °F 22.1 °F 21.2 °F 64% 29.89 in 6.2 mi NNE 13.8 mph - N/A Snow Light Snow
11:15 AM 32.0 °F 22.5 °F 23.0 °F 69% 29.86 in 4.3 mi NNE 12.7 mph - N/A Snow Light Snow
11:45 AM 32.0 °F 24.8 °F 24.8 °F 75% 29.86 in 1.9 mi NE 8.1 mph - N/A Snow Light Snow
12:15 PM 30.2 °F 22.6 °F 28.4 °F 93% 29.86 in 1.6 mi NE 8.1 mph - N/A Snow Snow
12:45 PM 30.2 °F 23.4 °F 30.2 °F 100% 29.86 in 0.9 mi NNE 6.9 mph - N/A Snow Snow
1:00 PM 30 °F - 30 °F 98% 29.87 in 1 mi NNE 6.7 mph - - Snow Snow
1:15 PM 30.2 °F 20.2 °F 30.2 °F 100% 29.83 in 3.7 mi NNE 12.7 mph - N/A Snow Light Snow
1:45 PM 30.2 °F 20.8 °F 30.2 °F 100% 29.80 in 3.7 mi North 11.5 mph - N/A Snow Light Snow
2:15 PM 30.2 °F 19.3 °F 30.2 °F 100% 29.80 in 3.7 mi North 15.0 mph - N/A Snow Light Snow
2:45 PM 30.2 °F 19.3 °F 30.2 °F 100% 29.77 in 4.3 mi North 15.0 mph - N/A Snow Light Snow
3:15 PM 30.2 °F 19.3 °F 30.2 °F 100% 29.77 in 1.2 mi NNE 15.0 mph - N/A Snow Snow
3:45 PM 30.2 °F 20.8 °F 30.2 °F 100% 29.77 in 0.6 mi NNE 11.5 mph - N/A Snow Snow
4:15 PM 30.2 °F 19.3 °F 30.2 °F 100% 29.74 in 0.7 mi NNE 15.0 mph - N/A Snow Snow
4:45 PM 32.0 °F 22.5 °F 30.2 °F 93% 29.74 in 0.9 mi NNE 12.7 mph - N/A Snow Snow
5:15 PM 32.0 °F 21.6 °F 32.0 °F 100% 29.71 in 0.9 mi NNE 15.0 mph - N/A Snow Snow
5:45 PM 32.0 °F 21.6 °F 32.0 °F 100% 29.71 in 1.2 mi NNE 15.0 mph - N/A Snow Light Snow
6:15 PM 32.0 °F 21.2 °F 32.0 °F 100% 29.71 in 1.6 mi NNE 16.1 mph - N/A Snow Light Snow
6:45 PM 32.0 °F 21.6 °F 32.0 °F 100% 29.71 in 3.7 mi NNE 15.0 mph - N/A   Overcast
7:00 PM 32 °F - 32 °F 99% 29.72 in 4 mi NNE 15.7 mph - - Snow Light Snow
7:45 PM 32.0 °F 22.1 °F 32.0 °F 100% 29.68 in 2.5 mi NE 13.8 mph - N/A Snow Light Snow
8:15 PM 32.0 °F 22.5 °F 32.0 °F 100% 29.68 in 2.5 mi NE 12.7 mph - N/A Snow Light Snow
8:45 PM 32.0 °F 22.5 °F 32.0 °F 100% 29.68 in 2.5 mi NE 12.7 mph - N/A Snow Light Snow
9:45 PM 32.0 °F 23.6 °F 32.0 °F 100% 29.68 in 0.7 mi NNE 10.4 mph - N/A Snow Light Snow
10:45 PM 32.0 °F 24.8 °F 32.0 °F 100% 29.68 in 0.7 mi NE 8.1 mph - N/A Snow Light Snow
11:45 PM 32.0 °F 24.8 °F 32.0 °F 100% 29.68 in 0.9 mi NNE 8.1 mph - N/A Snow Light Snow